This is the latest recevied weather packets stored in our database for station/object CT1ETE. If no packets are shown the sender has not sent any weather packets the latest 10 day(s).
| Time | Temp. | Humidity | Pressure | Rain* | Wind** | Luminosity | Snow |
|---|---|---|---|---|---|---|---|
| 1777684610 | 12.78° C | 78% | 1017.1 hPa | 0 mm | - | - | - |
| 1777682808 | 12.78° C | 80% | 1017.4 hPa | 0 mm | - | - | - |
| 1777681909 | 13.33° C | 78% | 1017.5 hPa | 0 mm | - | - | - |
| 1777673806 | 13.89° C | 72% | 1018.2 hPa | 0 mm | - | - | - |
| 1777672006 | 13.89° C | 73% | 1018.7 hPa | 0 mm | - | - | - |
| 1777662092 | 16.11° C | 67% | 1018 hPa | 0 mm | - | - | - |
| 1777661190 | 16.67° C | 66% | 1017.9 hPa | 0 mm | - | - | - |
| 1777649006 | 20.56° C | 62% | 1017.7 hPa | 0 mm | - | - | - |
| 1777646781 | 20.56° C | 63% | 1017.9 hPa | 0 mm | - | - | - |
| 1777644981 | 20.56° C | 63% | 1018.2 hPa | 0 mm | - | - | - |
| 1777636872 | 18.33° C | 65% | 1018.8 hPa | 0 mm | - | - | - |
| 1777632795 | 18.89° C | 66% | 1019 hPa | 0 mm | - | - | - |
| 1777628769 | 17.78° C | 70% | 1019.2 hPa | 0 mm | - | - | - |
| 1777625167 | 16.67° C | 79% | 1018.8 hPa | 0 mm | - | - | - |
| 1777623366 | 15.56° C | 80% | 1018.8 hPa | 0 mm | - | - | - |
| 1777620666 | 14.44° C | 85% | 1018.6 hPa | 0 mm | - | - | - |
| 1777618375 | 12.78° C | 86% | 1018.5 hPa | 0 mm | - | - | - |
| 1777615679 | 12.78° C | 85% | 1018.1 hPa | 0 mm | - | - | - |
| 1777601745 | 13.33° C | 85% | 1018.3 hPa | 0 mm | - | - | - |
| 1777595871 | 12.22° C | 86% | 1019.3 hPa | 0 mm | - | - | - |
| 1777593642 | 12.22° C | 86% | 1019.2 hPa | 0 mm | - | - | - |
| 1777590878 | 12.78° C | 86% | 1019.1 hPa | 0 mm | - | - | - |
| 1777588240 | 12.78° C | 85% | 1019 hPa | 0 mm | - | - | - |
| 1777586439 | 12.78° C | 85% | 1019.1 hPa | 0 mm | - | - | - |
| 1777577430 | 15° C | 79% | 1018 hPa | 0 mm | - | - | - |
* Rain latest hour (hover to see other rain measurements)
** Current wind speed in m/s (hover to see current wind gust speed)